Regional Weather Roundup
Issued by NWS Grand Forks, ND

Home | Current Version | Previous Version | Graphics & Text | Print | Product List | Glossary On
Versions: 1 2 3 4 5 6 7 8 9 10 11 12 13 14 15 16 17 18 19 20 21 22 23 24 25 26 27 28 29 30 31 32 33 34 35 36 37 38 39 40 41 42 43 44 45 46 47 48 49 50
328
ASUS43 KFGF 280110
RWRFGF
PRAIRIE TO PINES  WEATHER ROUNDUP
NATIONAL WEATHER SERVICE EASTERN NORTH DAKOTA/GRAND FORKS ND
800 PM CDT FRI MAY 27 2016

 **SATELLITE DATA USED TO AUGMENT SKY COVER AT AUTOMATED STATIONS**
 *****  WEATHER ACROSS EASTERN NORTH DAKOTA  *****

CITY           SKY/WX    TMP DP  RH WIND       PRES   REMARKS
GRAND FORKS    PTSUNNY   73  55  53 NE9       29.76R
GRAND FRKS AFB MOSUNNY   72  51  47 E6        29.77S
GRAND FRKS NWS   N/A     70 N/A N/A NE10        N/A
DEVILS LAKE    SUNNY     66  56  70 N14       29.80S
FARGO          CLOUDY    64  60  87 CALM      29.76F
WAHPETON ARPT  CLOUDY    63  55  77 N12       29.77S
$$

 ***** WEATHER ACROSS CENTRAL AND WESTERN NORTH DAKOTA  *****

CITY           SKY/WX    TMP DP  RH WIND       PRES   REMARKS
BISMARCK       MOSUNNY   67  50  54 E3        29.79R
MINOT          CLOUDY    66  56  70 NE13      29.81S
JAMESTOWN      CLOUDY    68  51  54 E5        29.77S
MINOT AFB      CLOUDY    62  56  83 NE15      29.81R
GARRISON         N/A     67  51  56 NE5       29.80S
WILLISTON      CLOUDY    62  50  64 N8        29.84R
DICKINSON      CLOUDY    64  44  48 E5        29.79S
HETTINGER      CLOUDY    66  47  50 E5        29.82S
$$

 *****  OTHER AIRPORT OBSERVATIONS IN OUR AREA  *****

CITY           SKY/WX    TMP DP  RH WIND       PRES   REMARKS
WALHALLA       FAIR      64  64 100 N14       29.81R
GRAFTON AIRPOR FAIR      70  55  60 E7        29.78F
VALLEY CITY AR CLOUDY    64  59  82 S9        29.80S
CANDO          NOT AVBL
CAVALIER APRT  FAIR      66  57  72 N12       29.79R
GWINNER        FAIR      63  59  88 NW9       29.77F
SHEYENNE NWR     N/A     60  59  95 NE3       29.95S
ROLLA          CLOUDY    55  55 100 NE14      29.86F
 ***** THE ABOVE OBSERVATIONS ARE NON NWS ARE NOT QUALITY
       CONTROLLED AND MAY MIS-REPORT RAIN FOR SNOW...
$$

  *****  WEATHER ACROSS NORTHERN MINNESOTA  *****

CITY           SKY/WX    TMP DP  RH WIND       PRES   REMARKS
FLAG ISLAND    DRIZZLE   63  59  88 CALM      29.83S
WARROAD        CLOUDY    63  61  94 SE3       29.83S
ROSEAU         RAIN      63  57  82 CALM      29.82S
HALLOCK        PTSUNNY   70  59  68 SE15G22   29.78R
THF RVR FALLS  CLOUDY    64  55  72 E10       29.81R
BAUDETTE       MOCLDY    67  54  63 E10       29.83S
WASKISH        CLOUDY    66  55  68 SE3       29.83S
CROOKSTON      CLOUDY    63  61  94 SE12      29.77S
STEPHEN NDAWN    N/A     66  61  82 E12         N/A
GREENBUSH NDAW   N/A    N/A N/A N/A E8          N/A
$$
  *****  WEATHER ACROSS CENTRAL AND WEST MINNESOTA  *****

CITY           SKY/WX    TMP DP  RH WIND       PRES   REMARKS
FOSSTON        CLOUDY    63  54  72 SE10      29.81R
BEMIDJI        CLOUDY    63  56  78 SE9       29.82F
PARK RAPIDS    CLOUDY    64  55  72 E7        29.81S
ELBOW LAKE     MOCLDY    64  59  85 SE10G17   29.77S
WADENA         MOCLDY    61  55  82 E6        29.80S
DETROIT LAKES  CLOUDY    63  55  77 SE16      29.81R
MOORHEAD       LGT RAIN  63  61  94 CALM      29.77F
FERGUS FALLS   CLOUDY    66  57  72 SE9       29.74S
MORRIS MN      RAIN      66  61  82 E10       29.74R
STAPLES        CLOUDY    61  57  88 NE3       29.80S
$$
  *****  WEATHER ELSEWHERE ACROSS MINNESOTA  *****

CITY           SKY/WX    TMP DP  RH WIND       PRES   REMARKS
DULUTH         CLOUDY    55  53  93 E12       29.81F
INTRNTL FALLS  CLOUDY    65  53  65 E6        29.84S
ELY            RAIN      59  55  88 E6        29.85F
CLOQUET        CLOUDY    52  50  93 E3        29.82F
WHEATON        CLOUDY    70  61  73 NW13      29.77S
BRAINERD       CLOUDY    60  58  92 E7        29.79F
HIBBING        CLOUDY    59  56  89 E7        29.81F
ALEXANDRIA     CLOUDY    61  58  90 E9        29.79R
SAINT CLOUD    CLOUDY    61  59  93 NE6       29.76F
MINNEAPOLIS    PTCLDY    65  60  84 N7        29.74S
$$

  *****  WEATHER ACROSS SOUTH DAKOTA  *****

CITY           SKY/WX    TMP DP  RH WIND       PRES   REMARKS
SIOUX FALLS    MOCLDY    71  58  63 NE6       29.72R
BROOKINGS      CLEAR     69  56  62 N6        29.73R
WATERTOWN      CLEAR     66  55  67 N12       29.74R
HURON          CLEAR     66  59  78 N9        29.72S
SISSETON         N/A     66  57  72 N16       29.75R
ABERDEEN       CLOUDY    65  58  78 NW8       29.75S
MITCHELL       CLOUDY    72  58  61 CALM      29.73R
PIERRE         MOSUNNY   69  52  54 CALM      29.75F
MOBRIDGE       MOSUNNY   69  50  50 W3        29.76R
RAPID CITY     MOSUNNY   61  48  62 SE8       29.83S
$$

  *****  SOME WEATHER IN NEARBY STATES *****

CITY           SKY/WX    TMP DP  RH WIND       PRES   REMARKS
GLASGOW MT     CLOUDY    69  45  41 E3        29.80S
GREAT FALLS MT CLOUDY    59  40  49 NW9       29.87R
CHEYENNE WY    CLOUDY    51  40  65 NE13      29.93R
SCOTTSBLUFF NE MOSUNNY   60  45  57 CALM      29.86F
OMAHA NE       CLOUDY    74  62  66 SE14      29.69R
DES MOINES IA  MOCLDY    74  61  63 NE7       29.70F
DAVENPORT IA   CLEAR     75  67  76 S13       29.75S
CHICAGO IL     CLOUDY    76  66  71 S9        29.82S
EAU CLAIRE WI  CLOUDY    67  65  93 W6        29.73R
LA CROSSE WI   CLEAR     71  67  87 CALM      29.71R
$$

  *****  SOME NATIONAL WEATHER *****

CITY           SKY/WX    TMP DP  RH WIND       PRES   REMARKS
LA GUARDIA NY  MOCLDY    74  67  78 S8        30.02R
RALEIGH NC     PTCLDY    78  61  55 SE5       30.09S
ATLANTA GA     PTCLDY    79  59  50 SE7       30.04R
NEW ORLEANS LA CLOUDY    80  68  66 SE12      29.93R
OKLAHOMA CITY  CLOUDY    69  60  73 SE12      29.68R
ALBUQUERQUE NM CLOUDY    71  26  18 SW21G38   29.88R
SALT LAKE CITY PTSUNNY   70  34  26 N6        29.88S
LOS ANGELES CA MOSUNNY   64  56  75 W14       29.85S
BOISE ID       SUNNY     68  23  18 N17       29.91F
SEATTLE WA     PTSUNNY   58  44  60 NW7       30.12S
$$

*** WEATHER ACROSS MANITOBA...SASKATCHEWAN AND ONTARIO ***
                ***ONTARIO***

CITY           SKY/WX    TMP DP  RH WIND       PRES   REMARKS
GERALDTON      CLOUDY    68  57  68 S6        29.92R
THUNDER BAY    CLOUDY    48  46  93 E13       29.91R
SIOUX LOOKOUT  CLOUDY    63  57  82 NE3       29.89R
TORONTO        MOCLDY    81  63  54 SW13      29.95R
BIG TROUT LK   CLOUDY    43  37  81 NE7       30.13R
PICKLE LAKE    LGT RAIN  52  52 100 NE12G22   29.96F FOG
DRYDEN         CLOUDY    63  61  94 NE3       29.88S
KENORA         LGT RAIN  61  59  94 SE5       29.86S
$$
                *** MANITOBA***

CITY           SKY/WX    TMP DP  RH WIND       PRES   REMARKS
BRANDON        CLOUDY    55  50  82 NE18G25   29.89S
DAUPHIN        CLOUDY    52  46  82 N13G20    29.96S
ISLAND LAKE    CLOUDY    45  37  76 NE7       30.13S
PILOT MOUND      N/A     55  54  94 N12         N/A
THE PAS        MOSUNNY   52  39  62 E5        30.06S
THOMPSON       NOT AVBL
WINNIPEG       MOSUNNY   61  55  82 N20G25    29.83R
LYNN LAKE      SUNNY     50  34  53 E14       30.12F
CHURCHILL      CLOUDY    32  25  74 E6        30.36F
GILLAM         CLOUDY    39  32  75 E8G18     30.25S
$$
                ***SASKATCHEWAN***

CITY           SKY/WX    TMP DP  RH WIND       PRES   REMARKS
ESTEVAN        HAIL      57  55  94 E9        29.86F
KINDERSLEY     TSTM      59  50  72 W14       29.81R
LLOYDMINSTER   LGT RAIN  57  52  82 E13G18    29.83S
PRINCE ALBERT  PTSUNNY   61  48  63 E13       29.92F
REGINA         PTSUNNY   64  50  59 E14       29.87R
YORKTON        SUNNY     59  50  72 NE14      29.92R
N. BATTLEFORD  SUNNY     66  48  52 E23G30    29.85F
LA RONGE       MOSUNNY   55  39  54 E15       29.99S
SASKATOON      PTSUNNY   66  48  52 SE16G23   29.88R
SWIFT CURRENT  MOSUNNY   63  46  55 SE15G23   29.84R
$$
NOTE: THESE ARE AUTOMATED STATIONS WITH LIMITED QUALITY CONTROL
      "FAIR" INDICATES FEW OR NO CLOUDS BELOW 12,000 FEET WITH NO
      SIGNIFICANT WEATHER AND/OR OBSTRUCTIONS TO VISIBILITY.
      SKY/WX - SKY CONDITION AND SIGNIFICANT WEATHER.
      TMP - AIR TEMPERATURE.    DP   - DEWPOINT TEMPERATURE.
      RH  - RELATIVE HUMIDITY.  PRES - PRESSURE.
      HX  - HEAT INDEX.         WCI  - WIND CHILL INDEX.
$




USA.gov is the U.S. government's official web portal to all federal, state and local government web resources and services.